User: anonymous   Login
Location: Unspecified
(0.0000°N, 0.0000°E)
Time: 21:19:17
(UTC+00:00)
Language:

SSETI-EXPRESS - Orbit

View from above orbital plane
View from above orbital plane
View from above satellite
View from above satellite

Ground track
Ground track

The orbit data is extracted from the following two-line orbital elements,

1 28894U 05043E   17141.89256694 +.00000082 +00000-0 +25532-4 0  9997
2 28894 097.8777 300.1662 0015903 238.7141 121.2503 14.61442789616025
Epoch (UTC): 21 May 2017 21:25:17
Eccentricity: 0.0015903
inclination: 97.8777°
perigee height: 677 km
apogee height: 700 km
right ascension of ascending node: 300.1662°
argument of perigee: 238.7141°
revolutions per day: 14.61442789
mean anomaly at epoch: 121.2503°
orbit number at epoch: 61602

The dashed part of the orbit path shows where the satellite is in the earth's shadow,  

DLR